Total_Precipitation_Accumulation
0.06 0.09 0.11 0.11 0.09 0.07 0.05 0.05 0.07 0.10 0.18 0.24 0.24 0.24 0.23 0.21 0.21 0.24 0.14 0.01 0.00 0.00 0.00 0.00 0.00 0.00 0.00 0.00 0.00 0.00 0.00 0.00 0.00 0.00 0.00 0.00 0.00 0.00 0.00 0.00 0.00 0.00 0.00 0.00 0.00
0.06 0.07 0.09 0.10 0.12 0.10 0.08 0.07 0.06 0.06 0.06 0.10 0.18 0.26 0.25 0.30 0.23 0.16 0.02 0.01 0.02 0.05 0.02 0.00 0.01 0.02 0.01 0.00 0.00 0.01 0.00 0.00 0.00 0.00 0.00 0.00 0.00 0.00 0.00 0.00 0.00 0.00 0.00 0.00 0.00
0.16 0.13 0.11 0.10 0.11 0.12 0.10 0.10 0.10 0.09 0.09 0.14 0.21 0.31 0.30 0.28 0.37 0.08 0.00 0.01 0.16 0.25 0.06 0.02 0.01 0.06 0.04 0.01 0.00 0.00 0.00 0.00 0.00 0.00 0.00 0.00 0.00 0.00 0.00 0.00 0.00 0.00 0.00 0.00 0.00
0.18 0.16 0.16 0.15 0.15 0.14 0.16 0.11 0.12 0.13 0.20 0.22 0.34 0.44 0.43 0.41 0.19 0.01 0.00 0.01 0.14 0.48 0.12 0.07 0.04 0.05 0.05 0.02 0.00 0.00 0.00 0.00 0.00 0.00 0.00 0.00 0.00 0.00 0.00 0.00 0.00 0.00 0.00 0.00 0.00
0.15 0.13 0.16 0.13 0.13 0.14 0.14 0.18 0.17 0.28 0.30 0.31 0.82 0.93 0.67 0.40 0.08 0.00 0.00 0.07 0.09 0.34 0.27 0.11 0.07 0.06 0.04 0.01 0.01 0.00 0.00 0.00 0.00 0.00 0.00 0.00 0.00 0.00 0.00 0.00 0.00 0.00 0.00 0.00 0.00
0.11 0.10 0.09 0.11 0.10 0.09 0.10 0.16 0.44 0.38 0.48 0.50 1.22 1.48 0.64 0.19 0.01 0.00 0.02 0.05 0.05 0.16 0.31 0.29 0.08 0.05 0.06 0.03 0.01 0.00 0.00 0.00 0.00 0.00 0.00 0.00 0.00 0.00 0.00 0.00 0.00 0.00 0.00 0.00 0.00
0.14 0.10 0.10 0.11 0.10 0.08 0.10 0.14 0.31 0.43 0.72 1.24 1.17 1.36 0.65 0.15 0.03 0.03 0.06 0.04 0.08 0.16 0.24 0.23 0.25 0.13 0.07 0.06 0.00 0.00 0.01 0.01 0.00 0.00 0.00 0.00 0.00 0.00 0.00 0.00 0.00 0.00 0.00 0.00 0.00
0.24 0.20 0.14 0.14 0.12 0.12 0.15 0.23 0.43 0.53 1.03 1.79 1.34 1.19 0.76 0.35 0.18 0.06 0.09 0.10 0.05 0.19 0.28 0.34 0.38 0.25 0.11 0.10 0.03 0.04 0.06 0.02 0.00 0.00 0.00 0.00 0.00 0.00 0.00 0.00 0.00 0.00 0.00 0.00 0.00
0.19 0.20 0.22 0.20 0.20 0.18 0.21 0.44 0.57 0.94 1.32 1.80 1.44 0.97 0.88 0.41 0.37 0.12 0.12 0.09 0.03 0.20 0.50 0.48 0.49 0.54 0.21 0.12 0.16 0.06 0.05 0.01 0.00 0.00 0.00 0.00 0.00 0.00 0.00 0.00 0.00 0.00 0.00 0.00 0.00
0.23 0.29 0.34 0.44 0.32 0.32 0.51 0.74 0.97 1.38 1.93 2.18 1.52 1.14 0.64 0.48 0.37 0.37 0.28 0.16 0.10 0.35 0.87 0.70 0.58 0.78 0.49 0.23 0.20 0.05 0.01 0.00 0.00 0.00 0.00 0.00 0.00 0.00 0.00 0.00 0.00 0.00 0.00 0.00 0.00
0.29 0.32 0.51 0.78 0.78 0.86 1.33 1.83 1.82 1.78 1.68 1.50 1.01 0.44 0.37 0.61 0.52 0.71 0.33 0.27 0.25 0.43 0.79 1.00 0.66 0.72 0.41 0.18 0.05 0.03 0.02 0.01 0.00 0.00 0.00 0.00 0.00 0.00 0.00 0.00 0.00 0.00 0.00 0.00 0.00
0.39 0.48 0.64 1.10 1.42 1.82 2.09 1.80 1.71 1.62 1.51 0.88 0.57 0.27 0.35 0.85 1.09 1.03 0.49 0.40 0.28 0.30 0.46 1.13 0.88 0.22 0.24 0.18 0.15 0.09 0.10 0.03 0.01 0.01 0.01 0.00 0.00 0.00 0.00 0.00 0.00 0.00 0.00 0.00 0.00
0.46 0.53 0.90 1.56 2.01 2.15 1.79 1.83 1.84 1.79 2.14 1.21 0.85 0.90 0.69 1.20 0.96 1.16 0.65 0.41 0.14 0.22 0.40 0.69 0.56 0.18 0.37 0.27 0.24 0.18 0.13 0.11 0.02 0.01 0.03 0.02 0.00 0.00 0.00 0.00 0.00 0.00 0.00 0.00 0.00
0.56 0.77 1.08 1.85 2.85 2.15 2.11 2.31 1.79 1.63 2.14 1.41 1.17 1.25 1.04 1.29 1.09 0.77 0.69 0.50 0.23 0.23 0.30 0.48 0.41 0.31 0.46 0.53 0.34 0.32 0.11 0.08 0.12 0.06 0.03 0.02 0.02 0.00 0.00 0.00 0.00 0.00 0.00 0.00 0.00
0.61 0.87 1.17 2.07 2.84 2.29 2.03 1.99 2.05 2.54 2.39 1.52 1.37 1.28 1.17 0.85 1.01 0.64 0.68 0.57 0.22 0.24 0.47 0.50 0.44 0.40 0.44 0.52 0.40 0.39 0.10 0.08 0.13 0.15 0.12 0.04 0.10 0.01 0.00 0.00 0.00 0.00 0.00 0.00 0.00
0.57 0.76 1.16 1.96 2.46 1.78 1.60 2.17 2.80 2.70 1.73 1.71 1.43 1.56 1.16 0.73 0.60 0.79 0.82 0.62 0.39 0.42 0.35 0.20 0.31 0.46 0.28 0.37 0.40 0.28 0.26 0.24 0.26 0.39 0.47 0.08 0.07 0.03 0.00 0.00 0.00 0.00 0.00 0.00 0.00
0.57 0.73 0.82 1.28 1.94 2.15 2.19 2.81 3.06 1.47 0.99 1.52 1.39 1.14 0.78 0.62 0.49 0.54 0.96 0.80 0.83 0.68 0.62 0.59 0.47 0.75 0.27 0.67 0.67 0.77 0.92 1.00 0.78 0.72 0.40 0.04 0.04 0.02 0.00 0.00 0.00 0.00 0.00 0.00 0.00
0.79 1.08 1.03 0.73 1.47 2.52 2.75 2.65 1.71 0.51 0.79 1.44 1.06 0.95 0.85 0.46 0.47 0.40 0.64 0.62 0.41 0.13 0.18 0.49 0.41 0.63 0.34 0.65 0.92 0.83 0.90 0.70 0.53 0.28 0.13 0.08 0.02 0.00 0.00 0.00 0.00 0.00 0.00 0.00 0.00
0.90 1.37 1.92 1.32 1.50 2.24 2.49 2.26 0.81 0.83 0.76 1.43 1.47 1.35 1.01 0.37 0.42 0.42 0.43 0.30 0.20 0.11 0.26 0.27 0.31 0.39 0.32 0.48 0.71 0.86 0.74 0.36 0.44 0.31 0.19 0.15 0.03 0.00 0.00 0.00 0.00 0.00 0.00 0.00 0.00
1.44 1.43 1.81 1.43 1.62 2.38 2.39 1.40 0.86 1.03 1.22 1.18 0.99 0.78 0.41 0.30 0.38 0.31 0.35 0.16 0.11 0.01 0.09 0.18 0.26 0.43 0.60 0.68 0.78 0.57 0.46 0.62 0.89 0.72 0.29 0.18 0.03 0.00 0.00 0.00 0.00 0.00 0.00 0.00 0.00
1.10 1.95 1.67 1.65 2.35 2.93 2.29 1.29 1.00 0.95 1.46 1.21 0.46 0.34 0.18 0.23 0.19 0.17 0.18 0.07 0.02 0.01 0.05 0.20 0.36 0.53 0.59 0.58 0.58 0.65 0.87 0.71 0.49 0.31 0.34 0.31 0.14 0.02 0.04 0.02 0.02 0.04 0.01 0.00 0.00
1.32 1.89 1.81 1.83 3.56 2.31 1.36 1.14 1.05 1.29 1.52 1.06 0.51 0.28 0.22 0.19 0.22 0.16 0.05 0.01 0.00 0.00 0.03 0.12 0.39 0.56 0.45 0.16 0.17 0.35 0.41 0.52 0.80 0.41 0.45 0.43 0.21 0.02 0.06 0.08 0.10 0.05 0.00 0.00 0.00
1.58 1.63 2.48 1.39 1.56 0.91 0.89 1.20 1.31 1.42 1.34 0.95 0.56 0.29 0.19 0.19 0.27 0.09 0.01 0.00 0.00 0.00 0.01 0.06 0.38 0.51 0.54 0.38 0.31 0.58 0.46 0.56 0.60 0.79 0.71 0.56 0.14 0.02 0.03 0.02 0.03 0.03 0.02 0.00 0.00
1.66 2.02 3.14 2.64 0.69 0.35 0.73 1.12 1.16 1.13 1.04 0.73 0.58 0.35 0.29 0.20 0.09 0.05 0.01 0.00 0.00 0.00 0.01 0.09 0.22 0.50 0.54 0.49 0.51 0.68 0.49 0.49 0.84 0.97 0.36 0.24 0.04 0.01 0.00 0.00 0.02 0.04 0.04 0.01 0.00
1.15 1.02 0.89 0.98 0.42 0.18 0.59 0.84 1.09 1.23 0.82 0.78 0.67 0.30 0.23 0.21 0.08 0.05 0.01 0.00 0.00 0.00 0.01 0.19 0.24 0.54 0.58 0.34 0.35 0.77 0.60 0.53 0.86 0.42 0.36 0.08 0.04 0.02 0.02 0.06 0.09 0.03 0.02 0.01 0.00
0.87 0.55 0.22 0.12 0.06 0.12 0.38 0.73 1.13 0.76 0.64 0.61 0.51 0.28 0.27 0.16 0.04 0.01 0.00 0.01 0.00 0.01 0.02 0.03 0.15 0.33 0.46 0.45 0.69 0.55 0.33 0.41 0.31 0.24 0.24 0.05 0.03 0.07 0.12 0.08 0.15 0.05 0.03 0.02 0.01
0.79 0.46 0.24 0.16 0.11 0.18 0.18 0.50 0.66 0.62 0.49 0.31 0.37 0.34 0.20 0.11 0.08 0.04 0.06 0.03 0.00 0.00 0.01 0.02 0.05 0.23 0.50 0.50 0.55 0.49 0.39 0.23 0.17 0.13 0.11 0.08 0.02 0.02 0.05 0.01 0.08 0.04 0.03 0.03 0.02